RH
8 8 8 8 8 9 12 15 18 20 21 22 23 22 23 23 23 22 19 18 18 18 17 17 17 16 15 15 15 14 13 13 13 12 11 11 10 10 9 9 9 9 9 9 12 15 16 15 15 13 12 11 11 11 12 12 11 11 11 12 11 11 10 10 10 11 13 14 13 11 12 13 16 21 24 23 24 26 28 30 32 32 33 35 34 33 35 38
7 8 7 8 8 8 9 12 15 18 20 22 23 23 23 23 25 25 22 20 19 19 19 18 18 17 16 15 15 14 14 13 13 12 13 13 13 12 10 10 10 9 9 10 12 14 14 14 14 13 11 11 11 12 12 12 12 11 12 12 11 11 11 10 10 11 13 13 12 12 14 13 13 20 25 29 28 24 26 31 33 33 31 33 33 34 37 37
7 7 7 7 8 7 8 9 11 15 17 20 22 23 23 24 25 27 25 24 22 21 19 19 19 17 16 15 15 15 14 13 15 16 16 15 14 13 12 10 11 10 10 12 13 13 13 13 13 12 11 11 12 12 13 13 12 11 13 14 12 12 11 10 9 10 12 12 12 13 15 14 13 17 22 31 32 27 31 32 30 29 29 32 34 35 38 38
7 7 7 7 8 8 8 8 9 11 15 18 21 22 23 23 25 27 27 27 26 24 21 19 19 18 17 16 15 15 15 17 19 19 18 17 15 14 12 12 11 11 11 13 13 13 12 13 13 12 11 12 13 12 12 13 13 13 13 13 12 12 12 11 9 10 12 12 12 14 14 14 14 15 18 26 32 33 35 36 32 29 28 32 35 37 40 41
7 7 8 7 8 8 8 9 8 9 12 15 19 21 22 23 24 26 27 28 28 27 25 22 20 19 18 18 18 17 17 21 23 21 19 19 17 15 13 12 11 11 12 13 13 13 12 12 12 12 11 12 13 12 12 13 13 14 13 12 13 13 12 11 11 11 12 12 13 14 14 14 14 15 16 21 29 31 34 39 36 30 29 33 35 38 42 44
8 8 8 8 8 9 9 9 9 9 10 12 16 19 21 22 23 25 26 28 28 29 28 26 24 22 21 20 20 19 20 23 24 22 21 20 20 17 14 13 12 12 14 14 13 13 12 12 12 11 11 12 14 12 13 14 13 13 13 12 13 12 11 12 11 11 13 13 13 14 14 14 14 14 14 18 27 29 29 31 28 29 33 35 37 40 42 43
10 9 9 9 9 10 10 10 10 10 10 11 13 17 19 21 22 24 25 27 29 29 29 29 28 26 25 22 22 23 24 23 22 22 21 21 22 20 17 15 14 16 16 14 13 13 12 12 11 11 11 13 14 12 14 15 12 12 13 14 13 11 10 11 11 11 13 14 13 13 14 14 13 14 14 17 23 24 23 23 23 30 36 36 38 41 42 41
11 11 11 10 10 11 11 11 11 11 10 10 11 14 17 19 21 23 24 26 27 27 28 29 29 29 28 26 26 27 25 22 21 22 21 22 21 22 21 18 18 20 17 14 13 12 12 11 11 12 13 13 14 13 15 15 13 12 13 15 14 12 11 11 11 11 12 13 13 13 14 15 14 14 14 15 18 19 21 22 24 31 35 35 37 39 41 40
12 12 12 11 11 12 12 12 12 11 11 11 11 12 15 17 19 22 23 24 25 26 26 28 29 30 30 28 28 26 23 22 23 24 23 22 21 21 22 21 21 22 19 16 14 12 13 12 12 13 13 14 14 14 15 13 14 12 12 15 14 12 12 11 11 11 12 12 13 14 15 15 15 15 14 14 16 19 21 22 25 30 33 34 35 38 40 40
13 14 14 13 13 12 12 13 14 13 12 11 11 11 13 15 17 20 23 24 24 25 25 27 28 29 30 30 28 25 22 23 24 24 24 23 21 20 20 22 23 23 20 17 15 13 13 12 13 12 13 14 14 14 15 13 14 14 13 15 14 13 13 12 11 11 13 12 13 14 15 15 15 15 15 17 19 21 21 22 27 29 31 32 33 38 40 39
13 13 13 14 13 13 14 15 16 16 14 12 11 11 12 14 15 18 22 24 24 25 25 26 27 28 28 30 28 23 21 24 24 23 23 22 21 20 20 20 21 23 21 18 15 14 13 13 13 12 13 15 13 13 15 13 13 14 14 14 13 13 13 11 11 12 12 13 13 14 15 15 15 14 16 20 22 22 22 24 28 29 31 33 34 38 40 39
12 12 12 13 13 14 15 16 16 17 16 14 12 11 12 12 14 15 19 23 25 26 26 26 27 29 30 31 29 24 21 23 24 23 23 22 22 22 22 21 21 21 20 17 15 14 13 14 13 13 15 15 14 14 14 13 13 13 13 13 13 13 13 12 11 12 13 13 13 13 14 14 15 14 16 21 23 23 23 25 28 29 33 36 36 40 42 40
12 12 12 12 12 14 15 15 16 17 17 15 13 12 12 12 13 13 16 21 24 25 25 25 27 30 33 32 28 24 22 22 23 23 24 24 23 22 23 22 21 21 20 17 15 14 14 14 15 16 18 16 15 15 15 13 12 12 12 14 14 14 13 12 12 12 12 13 13 13 15 14 14 14 16 20 22 22 23 24 27 30 33 37 39 42 42 41
11 12 12 11 12 12 13 14 15 15 16 16 15 14 14 14 14 13 14 17 22 24 24 25 27 32 36 33 28 25 23 21 22 23 23 25 25 23 22 20 19 20 20 18 16 15 14 15 16 16 17 16 17 16 15 14 13 12 14 14 13 14 14 13 12 12 12 13 13 13 14 15 15 15 16 20 23 23 22 22 26 30 32 36 39 41 42 42
11 11 11 11 12 12 13 14 15 15 15 15 15 15 17 16 16 15 16 17 20 24 25 27 29 33 37 33 28 25 22 22 23 23 23 25 27 24 20 18 17 19 19 17 16 14 14 15 16 17 17 16 16 16 14 14 13 12 14 14 13 14 15 14 12 12 12 13 13 13 14 15 16 16 17 21 23 23 22 22 25 30 33 35 36 39 43 43
11 11 11 11 11 11 12 13 15 16 15 15 14 15 17 17 16 17 18 18 22 26 29 32 32 34 36 31 28 26 24 25 26 25 25 26 26 22 18 17 17 17 18 16 15 13 13 16 18 19 18 16 15 15 15 15 14 13 13 14 15 14 15 15 14 12 13 14 13 13 13 14 15 16 17 20 21 21 22 23 25 30 33 34 34 38 42 42
11 11 11 11 11 11 12 13 15 17 17 17 15 14 16 16 17 19 21 22 25 30 32 35 35 35 33 28 28 29 26 27 27 27 27 24 22 19 17 17 16 16 16 15 14 13 14 17 19 18 17 16 15 15 18 19 17 15 12 15 18 15 14 16 15 13 13 13 13 13 13 14 16 16 15 19 21 21 22 23 26 31 33 34 36 40 42 40
13 13 12 11 11 12 12 13 14 16 18 18 18 16 15 16 19 21 23 26 30 33 36 39 38 34 31 26 28 29 27 27 27 27 26 21 19 18 16 16 16 14 15 15 15 16 17 19 19 18 17 17 16 15 18 20 19 18 14 15 18 15 14 16 17 16 14 13 14 14 13 13 15 15 14 17 20 21 22 23 28 31 33 36 37 38 40 38
13 13 13 12 12 12 12 12 13 14 17 19 20 18 16 19 22 24 25 27 32 34 37 40 37 33 33 30 26 28 27 28 28 27 25 20 17 17 15 14 14 13 14 17 18 19 20 20 20 19 18 17 15 15 18 20 20 20 17 15 17 16 14 15 19 19 15 14 15 15 15 14 15 17 16 16 20 21 20 24 31 31 33 38 37 38 39 36
12 12 13 13 14 13 13 13 13 14 15 18 20 21 22 24 25 27 28 28 29 28 30 32 30 29 32 32 28 26 27 28 28 28 25 20 17 16 14 13 13 15 17 18 20 20 20 21 19 18 19 18 16 17 20 20 18 19 18 16 17 18 16 16 19 18 16 17 17 17 18 17 17 18 17 17 21 21 21 27 32 29 33 39 38 39 38 36
12 12 12 12 13 14 14 14 14 14 14 16 20 23 27 26 24 27 27 25 25 27 28 28 28 27 29 31 30 27 28 29 29 29 26 20 16 16 15 14 15 17 19 19 21 22 20 20 19 18 21 21 18 18 19 18 17 17 17 17 17 17 17 18 19 18 17 18 19 21 21 19 18 18 18 19 21 20 20 25 27 27 34 39 38 40 37 37
12 12 12 12 12 13 13 14 14 14 14 15 18 21 26 27 26 27 26 23 23 26 29 28 28 28 29 31 31 29 29 30 30 29 27 20 16 17 17 17 18 19 20 21 21 21 19 20 20 20 21 20 19 19 17 18 18 17 18 19 19 17 17 20 21 19 18 18 21 24 21 19 18 17 17 19 20 20 20 22 23 28 36 38 39 41 38 37
13 12 12 12 11 12 12 12 13 14 14 16 17 20 26 28 27 28 29 26 22 23 26 27 27 29 30 32 32 30 29 30 30 28 26 20 16 19 20 19 20 20 20 20 19 20 21 21 20 19 18 18 19 18 17 19 19 18 20 21 19 19 18 20 21 19 19 20 23 24 20 18 19 17 16 18 18 22 25 26 29 35 40 40 41 44 42 39
12 11 11 11 11 11 11 11 12 12 14 16 17 21 25 26 26 31 33 28 21 21 24 25 26 27 29 31 31 28 27 28 31 28 24 20 17 18 20 20 20 20 20 19 18 20 24 23 19 17 17 18 20 19 19 19 20 19 21 21 20 20 18 21 25 22 21 23 22 20 18 18 19 17 16 15 18 23 25 27 32 37 42 44 45 45 44 42
15 14 14 13 12 12 12 11 11 12 15 15 17 22 25 24 25 30 32 30 25 23 26 29 29 27 27 29 30 27 26 28 30 29 24 21 18 18 20 21 20 20 20 19 19 20 23 22 18 17 17 18 20 20 19 19 19 20 19 19 20 21 21 24 27 25 24 25 22 18 19 21 18 16 16 14 16 20 20 23 28 33 40 44 45 45 45 45
19 19 18 18 16 15 14 15 14 14 13 12 16 22 24 24 26 28 32 35 33 27 30 35 33 30 27 28 29 27 26 28 29 29 27 23 18 18 21 20 20 22 21 19 19 20 22 20 18 19 18 18 19 18 18 18 18 20 18 15 17 21 23 24 25 25 24 26 25 19 21 28 22 16 17 16 15 18 20 24 25 28 36 40 43 47 48 47
19 19 19 20 20 19 19 19 16 13 13 15 19 22 23 24 25 29 32 36 34 30 32 34 33 33 30 27 28 26 27 29 29 29 27 23 19 18 20 21 20 21 21 19 20 20 19 19 18 19 20 21 19 18 18 16 17 20 19 15 15 19 22 22 24 24 23 28 29 22 20 28 28 20 19 18 18 20 22 25 26 28 33 38 44 49 50 50
19 19 18 19 20 21 21 20 18 14 15 16 17 20 23 23 25 30 35 33 31 33 36 34 32 33 33 31 27 26 31 32 30 29 26 21 20 18 19 22 21 21 21 20 22 23 19 18 19 19 22 23 22 22 20 15 17 22 21 17 19 22 22 22 22 23 24 26 29 25 20 24 30 27 22 21 21 23 25 26 29 31 34 40 45 48 51 50
18 18 18 18 19 20 21 21 20 18 17 15 15 19 20 21 24 29 33 30 28 33 36 37 37 34 33 33 28 27 33 35 32 29 25 21 21 20 21 22 22 23 21 19 25 29 22 19 21 22 24 25 25 24 21 18 20 24 23 20 23 24 22 23 22 23 26 26 27 30 24 24 32 31 24 24 25 26 28 30 34 35 37 41 45 48 52 53
14 14 15 15 16 18 19 20 21 22 20 17 19 21 19 22 27 29 32 30 28 32 33 37 40 38 35 34 30 30 34 36 34 31 26 23 22 21 23 23 23 23 21 19 26 29 24 22 24 24 25 26 25 23 22 21 21 24 25 23 23 23 23 23 23 25 29 26 26 31 29 26 33 34 28 29 30 31 33 34 35 36 36 41 45 46 49 52
10 10 10 11 12 15 16 18 20 23 24 22 22 22 21 25 29 32 33 27 27 33 34 36 39 40 41 39 34 33 35 36 36 34 29 25 25 24 24 25 24 24 23 22 25 26 25 25 25 25 26 25 24 24 25 23 21 23 26 24 23 25 24 23 25 27 28 28 29 33 32 27 31 37 35 33 32 32 34 34 35 37 37 39 43 44 45 47
7 8 7 8 11 12 13 15 16 20 25 25 23 22 25 30 30 29 28 24 27 33 34 37 40 40 42 43 39 35 35 37 36 37 34 29 27 26 25 27 26 25 26 25 26 27 27 26 25 26 26 25 25 26 26 25 23 24 25 24 25 28 27 25 29 28 25 29 34 34 32 27 29 37 38 34 32 32 34 36 38 39 40 40 40 41 44 46
6 6 5 8 12 12 12 11 10 12 20 25 25 25 29 32 30 26 23 24 32 36 33 35 39 39 40 42 42 39 39 40 38 39 39 34 31 29 26 28 28 26 29 28 29 31 29 28 27 26 26 26 25 26 27 27 25 25 25 24 24 30 33 27 27 29 27 32 36 33 31 28 29 36 36 35 35 35 35 37 40 41 41 41 38 37 42 45
5 5 7 11 14 14 14 13 9 6 11 20 26 32 37 34 28 27 25 24 27 34 36 36 36 37 40 42 43 41 43 46 43 42 42 37 35 34 31 30 28 28 32 34 33 32 31 31 29 27 27 26 26 26 27 28 27 26 25 26 25 29 33 29 27 30 29 32 36 33 30 28 31 36 37 37 37 36 37 38 40 42 41 40 37 36 40 43
6 7 10 14 15 15 15 15 12 6 6 13 23 34 41 35 27 25 26 24 25 29 33 36 37 37 40 42 43 42 44 50 49 46 45 41 39 38 36 35 33 33 36 39 38 34 33 34 31 29 28 27 27 27 27 28 30 29 26 27 29 28 30 31 32 34 32 32 34 34 30 28 32 38 38 38 38 36 38 40 40 42 41 40 39 39 41 42
8 10 13 15 15 15 15 14 13 8 6 10 20 31 35 32 26 23 23 27 29 28 29 33 38 39 39 40 43 43 43 48 52 51 50 47 44 43 42 40 40 39 39 42 43 40 37 36 34 32 30 28 28 29 27 28 32 35 31 27 28 27 28 31 32 33 31 30 32 33 32 31 31 35 37 38 39 38 39 41 42 43 44 42 42 41 41 42
11 13 16 17 14 15 15 14 13 11 7 11 19 25 26 27 28 26 24 26 29 30 28 29 35 39 40 40 43 45 44 46 50 52 53 53 50 48 47 46 43 42 42 44 46 46 42 41 39 35 32 30 30 30 29 28 31 35 35 31 30 30 29 29 32 33 30 29 30 32 32 32 31 34 38 38 40 41 41 42 44 45 45 45 44 44 43 43
14 15 18 17 14 14 13 12 14 11 8 13 20 23 23 25 29 29 25 23 27 30 30 29 34 38 40 43 46 46 46 50 50 50 52 53 53 52 51 50 48 46 46 45 48 50 46 45 46 40 36 33 31 30 31 30 30 32 34 33 34 35 33 31 32 33 32 31 31 31 32 31 30 36 41 42 42 44 44 44 46 46 46 46 46 46 46 47
14 15 18 18 14 13 13 14 16 13 10 15 19 22 22 22 25 29 27 23 24 28 30 30 33 33 35 42 48 48 48 53 53 51 52 52 53 52 50 51 51 49 49 47 49 52 49 48 49 45 41 37 34 32 32 32 31 30 31 32 34 36 36 36 35 32 33 33 32 33 32 30 34 39 43 44 46 47 47 47 48 47 47 46 46 46 47 48
15 15 18 19 15 14 16 19 20 15 12 15 17 19 22 21 22 27 28 24 23 26 29 31 31 31 32 37 44 48 50 52 52 52 54 52 52 52 50 49 50 50 50 49 48 51 51 50 50 49 44 40 40 37 34 34 34 32 32 31 31 32 32 36 37 35 35 35 36 37 33 34 41 43 41 44 47 48 49 50 50 50 49 50 50 49 49 50
17 17 19 20 19 18 19 21 22 18 16 16 16 19 22 23 24 29 32 28 23 25 29 29 29 32 32 33 39 46 50 53 53 54 56 54 52 53 52 50 50 50 50 51 51 51 51 50 49 50 47 43 42 39 37 37 36 35 34 32 32 32 31 33 34 34 34 33 35 37 36 41 47 43 41 44 44 45 47 50 51 51 51 52 51 50 49 47
17 18 20 21 21 23 24 24 22 20 21 21 20 21 20 22 24 28 34 33 24 22 25 25 25 28 30 32 36 40 45 52 55 56 58 57 54 55 55 52 51 50 51 53 53 53 53 51 49 49 47 44 43 41 40 39 37 36 35 35 36 37 35 35 34 35 35 32 34 35 38 48 51 45 44 44 43 45 47 47 47 47 48 48 48 48 47 46
17 19 22 22 23 25 29 32 27 22 23 26 26 24 21 23 25 29 34 36 30 23 23 24 24 25 28 30 33 37 40 46 51 54 56 56 56 58 59 57 52 50 51 53 54 56 55 52 50 49 48 45 44 42 41 40 38 38 36 37 39 39 38 38 37 40 40 36 36 33 36 49 51 45 46 45 45 49 48 46 46 46 48 49 49 49 48 48
19 22 24 25 27 30 35 38 35 30 31 33 35 31 26 26 28 31 37 39 34 26 22 25 25 23 25 26 29 35 39 43 48 51 52 54 55 56 60 62 58 54 55 55 55 57 56 54 52 52 50 48 47 45 43 41 40 40 40 39 39 38 40 41 40 40 39 38 38 34 37 51 52 46 47 47 47 51 51 51 50 47 49 49 49 50 50 52
23 27 28 30 34 36 41 45 46 42 36 37 43 40 35 34 30 30 39 42 35 26 24 26 23 20 21 22 26 33 37 42 48 50 51 54 54 52 55 60 61 61 63 60 57 57 57 57 55 54 54 53 51 49 46 44 42 41 41 41 41 40 41 41 40 39 38 38 38 35 41 55 57 50 51 50 50 53 54 54 53 51 51 50 48 50 54 58
24 27 29 34 38 40 45 52 57 55 42 41 51 48 40 42 37 30 38 46 39 29 26 26 23 21 22 23 28 32 34 40 47 50 51 53 52 50 51 53 55 58 63 62 61 62 63 60 58 56 56 55 53 51 48 46 45 44 42 42 42 42 43 43 39 38 38 38 38 38 45 56 58 55 55 55 53 55 56 57 57 57 56 53 49 49 51 56
22 25 27 33 41 44 47 52 57 62 58 52 55 50 41 41 41 37 42 48 44 34 28 27 26 25 25 27 32 35 34 36 44 49 51 51 50 50 49 49 50 54 58 58 60 65 68 67 65 61 59 55 52 50 49 49 49 47 46 46 45 44 44 44 42 42 41 39 42 47 48 53 56 56 56 56 55 55 56 57 59 60 60 56 51 48 48 50
20 24 28 33 40 44 52 60 63 71 78 66 52 47 44 43 47 51 52 49 45 38 32 29 28 27 27 28 32 35 35 37 43 48 51 51 50 50 50 48 48 51 53 53 55 59 63 65 67 66 63 59 56 53 51 50 49 47 46 48 49 49 50 50 49 50 47 43 46 53 53 53 54 55 56 57 55 54 55 56 57 59 61 59 55 53 51 51
20 22 25 30 35 41 60 78 78 79 86 75 55 47 48 51 57 61 59 54 50 43 36 34 31 28 29 30 32 35 36 38 43 47 50 52 51 51 51 50 49 49 50 52 54 56 58 59 60 60 61 61 59 58 56 54 53 51 49 47 48 50 53 55 55 54 53 51 52 56 57 56 54 54 57 56 55 55 57 58 59 61 63 62 59 57 56 53
22 22 24 26 29 37 60 84 87 82 81 74 64 58 59 63 66 63 59 59 57 49 41 38 36 33 31 33 34 36 37 38 43 46 48 49 50 49 50 50 49 49 50 52 55 56 58 59 57 57 60 60 59 59 59 57 56 56 56 52 49 49 50 53 55 56 56 57 57 58 60 60 56 56 57 56 57 59 61 62 63 64 65 64 60 58 56 53
20 21 23 26 26 31 49 72 84 85 83 78 76 75 73 74 73 68 63 60 59 57 49 43 43 42 38 37 37 37 38 40 42 44 44 45 46 46 47 47 47 49 52 53 56 60 60 58 57 59 61 60 59 61 63 62 61 60 59 58 56 53 52 53 55 58 59 60 60 61 62 62 60 58 59 59 60 63 65 66 66 65 65 64 61 57 55 52
21 21 21 24 24 26 37 55 69 78 82 82 83 85 83 80 76 72 70 65 61 63 59 51 50 49 45 44 43 42 42 43 44 44 43 44 44 44 45 44 43 46 49 51 55 60 62 58 57 57 58 58 59 61 64 68 69 67 63 62 61 58 57 57 57 61 63 61 61 62 62 62 61 60 62 64 64 65 67 68 68 67 66 64 61 59 56 53